Regional Weather Roundup
Issued by NWS

Home | Current Version | Previous Version | Text Only | Print | Product List | Glossary On
Versions: 1 2 3 4 5 6 7 8 9 10 11 12 13 14 15 16 17 18 19 20 21 22 23 24 25 26 27 28 29 30 31 32 33 34 35 36 37 38 39 40 41 42 43 44 45 46 47 48 49 50
000
ASUS43 KTOP 061159
RWRKS

WEATHER ROUNDUP FOR KANSAS
NATIONAL WEATHER SERVICE GOODLAND KS
600 AM CST SAT FEB 06 2016

NOTE:  "FAIR" INDICATES FEW OR NO CLOUDS BELOW 12,000 FEET WITH NO
SIGNIFICANT WEATHER AND/OR OBSTRUCTIONS TO VISIBILITY.

KSZ001>006-013>018-027>032-041>047-061300-
NORTHWEST KANSAS

CITY           SKY/WX    TMP DP  RH WIND       PRES   REMARKS
GOODLAND       CLOUDY    22  10  60 W16       30.24F WCI   8
6HR MIN TEMP:  13; 6HR MAX TEMP:  22;

HAYS           CLEAR     18   7  62 W10       30.30S WCI   6
HILL CITY      CLOUDY    17  10  74 W7        30.29S
6HR MIN TEMP:  16; 6HR MAX TEMP:  25;

RUSSELL        CLEAR     17  15  92 W9        30.29S
6HR MIN TEMP:  17; 6HR MAX TEMP:  28;

$$

KSZ061>065-074>080-084>089-061300-
SOUTHWEST KANSAS

CITY           SKY/WX    TMP DP  RH WIND       PRES   REMARKS
DODGE CITY     CLEAR     20  14  77 CALM      30.31S
6HR MIN TEMP:  20; 6HR MAX TEMP:  26;

ELKHART          N/A     22  10  60 W9          N/A
GARDEN CITY    CLEAR     18  13  80 W10       30.30S WCI   6
6HR MIN TEMP:  17; 6HR MAX TEMP:  25;

GREAT BEND     CLEAR     21  12  68 W6        30.30F
LIBERAL        CLEAR     18  10  73 NW8       30.31F
$$

KSZ066>073-081>083-090>101-061300-
SOUTHEAST KANSAS

CITY           SKY/WX    TMP DP  RH WIND       PRES   REMARKS
CHANUTE        PTCLDY    29  24  82 NW6       30.29R
6HR MIN TEMP:  29; 6HR MAX TEMP:  39;

COFFEYVILLE    PTCLDY    32  27  81 S3        30.30S
6HR MIN TEMP:  32; 6HR MAX TEMP:  40;

HUTCHINSON     CLEAR     24  20  84 NW7       30.31S
6HR MIN TEMP:  22; 6HR MAX TEMP:  33;

MEDICINE LODGE   N/A     23  21  92 NW6       30.33R
NEWTON         CLEAR     27  19  74 NW5       30.31S
PARSONS        MOCLDY    34  27  75 NW3       30.31R
6HR MIN TEMP:  27; 6HR MAX TEMP:  40;

WICHITA INTL   PTCLDY    27  23  85 NW8       30.31R
6HR MIN TEMP:  27; 6HR MAX TEMP:  35;

WICHITA JABRA  CLEAR     28  25  88 NW9       30.30R
6HR MIN TEMP:  28; 6HR MAX TEMP:  34;

WINFIELD       CLEAR     29  25  85 N3        30.32R
6HR MIN TEMP:  26; 6HR MAX TEMP:  41;

$$

KSZ007>012-019>026-033>040-048>060-102>105-061300-
NORTHEAST KANSAS

CITY           SKY/WX    TMP DP  RH WIND       PRES   REMARKS
CONCORDIA      CLEAR     25  22  88 W6        30.28S
6HR MIN TEMP:  25; 6HR MAX TEMP:  30;

EMPORIA        CLEAR     25  22  88 W7        30.28R
6HR MIN TEMP:  24; 6HR MAX TEMP:  32;

LAWRENCE       CLEAR     22  20  92 NW6       30.28R
6HR MIN TEMP:  22; 6HR MAX TEMP:  32;

MANHATTAN      CLEAR     23  22  96 SW3       30.30S
6HR MIN TEMP:  20; 6HR MAX TEMP:  29;

OLATHE IND     CLEAR     26  23  88 NW7       30.26S
6HR MIN TEMP:  25; 6HR MAX TEMP:  37;

OLATHE EXE     CLEAR     28  22  78 NW6       30.25R
6HR MIN TEMP:  28; 6HR MAX TEMP:  37;

SALINA         CLEAR     27  22  81 W3        30.31S
6HR MIN TEMP:  27; 6HR MAX TEMP:  31;

TOPEKA BILLARD CLEAR     27  23  85 W3        30.29R
6HR MIN TEMP:  25; 6HR MAX TEMP:  32;

TOPEKA FORBES  CLEAR     26  22  84 NW6       30.27R
6HR MIN TEMP:  24; 6HR MAX TEMP:  33;

$$



USA.gov is the U.S. government's official web portal to all federal, state and local government web resources and services.